sat.trackr.live / text

‹ back to catalog

STARLINK-30409

NORAD 57820 · 2023-138N

PAYLOAD ACTIVE UNKNOWN

§ Identity

Operator
Country
US
Launch date
2023-09-09
Launch site
AFETR
Launch vehicle
Mass (kg)
RCS (m²)

Purposes: comms

External: N2YO · Heavens-Above · Gunter

§ Orbital elements

Epoch: 2026-05-25T01:58:43.927104Z

Period
94.27 min
Inclination
43.0027°
Eccentricity
0.0001412
Mean motion
15.27567041 rev/d
Perigee alt
482.1 km
Apogee alt
484.1 km
Semi-major
6,861.2 km
B*
-3.2251e-5
RAAN
162.5611°
Arg perigee
277.3083°
Mean anomaly
82.7608°
Rev number
15,036

§ Raw data

STARLINK-304091 57820U 23138N   26145.08245286 -.00001149  00000+0 -32251-4 0  99952 57820  43.0027 162.5611 0001412 277.3083  82.7608 15.27567041150364

JSON: /api/v1/satellites/57820 · /tle

For live sub-satellite position, see the globe view (requires WebGL).

§ Visibility from observer

Set your observer location to see the next 7 days of passes ≥ 10°. The values pass through the URL so the page stays shareable.

No JS? Fill the form by hand. The geolocation button needs JavaScript.